Location: Starhoo Observatory
(41.8578°N, 70.9669°W)
Time: 04:33:49
(UTC-04:00)

ISS - Visible Passes

Search period start: 05 May 2016 00:00
Search period end: 15 May 2016 00:00
Orbit: 402 x 405 km, 51.6° (Epoch: 05 May)

Date Brightness Start Highest point End Pass type
(mag) Time Alt. Az. Time Alt. Az. Time Alt. Az.
08 May -1.2 04:34:06 10° S 04:36:35 20° SE 04:39:04 10° E visible
09 May -0.6 03:43:29 10° SE 03:44:14 11° SE 03:44:59 10° ESE visible
10 May -2.7 04:25:17 16° SSW 04:27:40 47° SE 04:30:50 10° ENE visible
11 May -1.8 03:34:44 24° SSE 03:35:12 24° SE 03:37:55 10° ENE visible
12 May -0.4 02:44:06 11° ESE 02:44:06 11° ESE 02:44:25 10° E visible
12 May -3.3 04:16:44 20° WSW 04:18:50 73° NNW 04:22:07 10° NE visible
13 May -3.2 03:26:02 57° SSE 03:26:14 59° SE 03:29:28 10° ENE visible
14 May -1.0 02:35:16 20° E 02:35:16 20° E 02:36:36 10° ENE visible
14 May -2.2 04:07:53 16° W 04:10:05 36° NNW 04:13:10 10° NE visible
